Weather History for KMLE - July, 2014

Change the Weather History Date:

Sunday, July 27, 2014

  Actual Average (KOMA) Record (KOMA)
Temperature  
Mean Temperature 74 °F 77 °F  
Max Temperature 81 °F 87 °F 109 °F (1930)
Min Temperature 67 °F 66 °F 53 °F (2005)
Degree Days  
Heating Degree Days 0 0  
Month to date heating degree days 0  
Since 1 June heating degree days 17  
Since 1 July heating degree days 0  
Cooling Degree Days 9 12  
Month to date cooling degree days 320  
Year to date cooling degree days 632  
Since 1 June cooling degree days 550  
Growing Degree Days 24 (Base 50)    
Moisture  
Dew Point 61 °F    
Average Humidity 63    
Maximum Humidity 92    
Minimum Humidity 42    
Precipitation  
Precipitation 0.00 in 0.12 in 1.77 in (1875)
Month to date precipitation 3.32  
Year to date precipitation 18.78  
Snow  
Snow 0.00 in 0.00 in - ()
Month to date snowfall 0.0  
Since 1 July snowfall 0.0  
Snow Depth -    
Sea Level Pressure  
Sea Level Pressure 30.06 in    
Wind  
Wind Speed 7 mph (NW)    
Max Wind Speed 21 mph    
Max Gust Speed 32 mph    
Visibility 10 miles    
Events      
T = Trace of Precipitation, MM = Missing Value Source: NWS Daily Summary

Daily Weather History Graph

Daily Weather History Graph

Search for Another Location

Airport or City:

Trip Planner

Search our weather history database for the weather conditions in past years. The results will help you decide how hot, cold, wet, or windy it might be!

Date:

Astronomy

Jul. 27, 2014 Rise Set
Actual Time 6:15 AM CDT 8:46 PM CDT
Civil Twilight 5:43 AM CDT 9:17 PM CDT
Nautical Twilight 5:04 AM CDT 9:56 PM CDT
Astronomical Twilight 4:20 AM CDT 10:40 PM CDT
Moon 7:04 AM CDT (7/27) 8:54 PM CDT (7/27)
Length of Visible Light 15h 33m
Length of Day
14h 30m
New Moon, 1% of the Moon is Illuminated
Jul 27
New Moon
Aug 3
First Quarter
Aug 10
Full
Aug 17
Last Quarter
Aug 25
New

Hourly Weather History & Observations

Time (CDT) Temp. Heat Index Dew Point Humidity Pressure Visibility Wind Dir Wind Speed Gust Speed Precip Events Conditions
12:15 AM 77.2 °F - 72.7 °F 86% 29.93 in 10.0 mi NW 3.5 mph - N/A   Clear
12:35 AM 75.6 °F - 72.3 °F 90% 29.94 in 10.0 mi WNW 4.6 mph - N/A   Clear
12:55 AM 75.7 °F - 72.5 °F 90% 29.94 in 10.0 mi WNW 6.9 mph - N/A   Clear
1:15 AM 76.6 °F - 72.5 °F 87% 29.95 in 10.0 mi NW 4.6 mph - N/A   Clear
1:35 AM 77.7 °F - 72.0 °F 82% 29.95 in 10.0 mi NNW 3.5 mph - N/A   Clear
1:55 AM 77.0 °F - 71.6 °F 83% 29.95 in 10.0 mi Calm Calm - N/A   Clear
2:15 AM 76.1 °F - 71.2 °F 85% 29.95 in 10.0 mi NW 3.5 mph - N/A   Clear
2:35 AM 74.8 °F - 70.3 °F 86% 29.96 in 10.0 mi WNW 4.6 mph - N/A   Clear
2:55 AM 72.3 °F - 69.6 °F 91% 29.96 in 10.0 mi WNW 4.6 mph - N/A   Clear
3:15 AM 73.4 °F - 70.2 °F 90% 29.96 in 10.0 mi Calm Calm - N/A   Clear
3:35 AM 73.6 °F - 70.2 °F 89% 29.96 in 10.0 mi Calm Calm - N/A   Clear
3:55 AM 72.7 °F - 70.0 °F 91% 29.96 in 10.0 mi Calm Calm - N/A   Clear
4:15 AM 71.1 °F - 68.7 °F 92% 29.98 in 7.0 mi NW 3.5 mph - N/A   Clear
4:35 AM 71.4 °F - 69.1 °F 92% 29.98 in 7.0 mi WNW 4.6 mph - N/A   Clear
4:55 AM 71.8 °F - 68.4 °F 89% 29.99 in 10.0 mi NW 5.8 mph - N/A   Clear
5:35 AM 70.2 °F - 64.8 °F 83% 30.01 in 10.0 mi NW 4.6 mph - N/A   Clear
5:55 AM 69.6 °F - 64.0 °F 82% 30.01 in 10.0 mi WNW 5.8 mph - N/A   Clear
6:15 AM 68.2 °F - 63.3 °F 84% 30.02 in 10.0 mi NW 4.6 mph - N/A   Clear
6:35 AM 67.1 °F - 62.2 °F 84% 30.02 in 10.0 mi WNW 4.6 mph - N/A   Clear
6:55 AM 68.0 °F - 61.7 °F 80% 30.02 in 10.0 mi WNW 5.8 mph - N/A   Clear
7:15 AM 68.4 °F - 61.2 °F 78% 30.03 in 10.0 mi WNW 5.8 mph - N/A   Clear
7:35 AM 68.9 °F - 60.3 °F 74% 30.04 in 10.0 mi NW 5.8 mph - N/A   Clear
7:55 AM 70.2 °F - 59.2 °F 68% 30.05 in 10.0 mi NW 6.9 mph 16.1 mph N/A   Clear
8:15 AM 72.3 °F - 58.1 °F 61% 30.05 in 10.0 mi NW 9.2 mph - N/A   Clear
8:35 AM 73.4 °F - 56.8 °F 56% 30.06 in 10.0 mi NW 11.5 mph - N/A   Clear
8:55 AM 73.9 °F - 56.5 °F 54% 30.07 in 10.0 mi NW 11.5 mph - N/A   Clear
9:15 AM 74.3 °F - 57.2 °F 55% 30.07 in 10.0 mi NW 9.2 mph - N/A   Clear
9:35 AM 74.3 °F - 57.2 °F 55% 30.08 in 10.0 mi NW 12.7 mph 17.3 mph N/A   Clear
9:55 AM 75.9 °F - 58.1 °F 54% 30.08 in 10.0 mi NW 12.7 mph - N/A   Clear
10:15 AM 76.1 °F - 58.3 °F 54% 30.09 in 10.0 mi NW 13.8 mph 18.4 mph N/A   Clear
10:35 AM 76.3 °F - 58.8 °F 55% 30.09 in 10.0 mi WNW 15.0 mph 19.6 mph N/A   Clear
10:55 AM 77.9 °F - 57.7 °F 50% 30.09 in 10.0 mi NW 16.1 mph 24.2 mph N/A   Clear
12:15 PM 79.0 °F - 57.7 °F 48% 30.10 in 10.0 mi WNW 20.7 mph 25.3 mph N/A   Clear
12:35 PM 79.3 °F - 56.5 °F 45% 30.10 in 10.0 mi NNW 17.3 mph 25.3 mph N/A   Clear
12:55 PM 79.7 °F - 57.0 °F 46% 30.09 in 10.0 mi NW 16.1 mph 27.6 mph N/A   Clear
1:15 PM 79.9 °F - 56.7 °F 45% 30.10 in 10.0 mi NNW 13.8 mph 29.9 mph N/A   Clear
1:35 PM 79.5 °F - 56.3 °F 45% 30.09 in 10.0 mi NW 12.7 mph 26.5 mph N/A   Clear
1:55 PM 79.9 °F - 56.5 °F 45% 30.09 in 10.0 mi NW 16.1 mph 31.1 mph N/A   Clear
2:15 PM 80.2 °F 80.6 °F 57.9 °F 46% 30.09 in 10.0 mi NW 16.1 mph 24.2 mph N/A   Clear
2:35 PM 80.6 °F 80.9 °F 58.3 °F 46% 30.09 in 10.0 mi NW 17.3 mph 26.5 mph N/A   Scattered Clouds
2:55 PM 81.0 °F 81.2 °F 58.5 °F 46% 30.09 in 10.0 mi NW 20.7 mph 27.6 mph N/A   Scattered Clouds
3:15 PM 81.0 °F 81.0 °F 57.0 °F 44% 30.09 in 10.0 mi NW 11.5 mph 32.2 mph N/A   Clear
3:35 PM 81.1 °F 81.2 °F 57.2 °F 44% 30.09 in 10.0 mi NNW 15.0 mph 25.3 mph N/A   Clear
3:55 PM 81.5 °F 81.5 °F 57.4 °F 44% 30.09 in 10.0 mi NNW 11.5 mph 29.9 mph N/A   Scattered Clouds
4:15 PM 80.8 °F 80.7 °F 55.8 °F 42% 30.09 in 10.0 mi NW 17.3 mph 27.6 mph N/A   Clear
4:35 PM 81.0 °F 80.9 °F 56.7 °F 43% 30.09 in 10.0 mi NNW 13.8 mph 27.6 mph N/A   Clear
4:55 PM 81.0 °F 80.9 °F 56.3 °F 43% 30.09 in 10.0 mi NW 19.6 mph 31.1 mph N/A   Clear
5:15 PM 81.1 °F 81.2 °F 57.2 °F 44% 30.10 in 10.0 mi NW 17.3 mph 24.2 mph N/A   Scattered Clouds
5:35 PM 80.2 °F 80.6 °F 57.6 °F 46% 30.10 in 10.0 mi NNW 6.9 mph 18.4 mph N/A   Scattered Clouds
5:55 PM 80.4 °F 80.7 °F 57.0 °F 45% 30.10 in 10.0 mi NNW 13.8 mph 23.0 mph N/A   Scattered Clouds
6:15 PM 80.1 °F 80.5 °F 57.4 °F 46% 30.11 in 10.0 mi NNW 12.7 mph 18.4 mph N/A   Scattered Clouds
6:35 PM 79.7 °F - 57.6 °F 47% 30.11 in 10.0 mi North 10.4 mph 20.7 mph N/A   Scattered Clouds
6:55 PM 78.3 °F - 57.6 °F 49% 30.11 in 10.0 mi North 5.8 mph 16.1 mph N/A   Scattered Clouds
7:15 PM 78.1 °F - 57.9 °F 50% 30.11 in 10.0 mi NNW 10.4 mph 17.3 mph N/A   Scattered Clouds
7:35 PM 77.7 °F - 57.2 °F 49% 30.11 in 10.0 mi North 8.1 mph 16.1 mph N/A   Clear
7:55 PM 76.8 °F - 57.4 °F 51% 30.12 in 10.0 mi North 4.6 mph - N/A   Clear
8:15 PM 76.1 °F - 57.0 °F 51% 30.12 in 10.0 mi NNW 6.9 mph - N/A   Clear
8:35 PM 75.6 °F - 57.2 °F 53% 30.12 in 10.0 mi NNW 4.6 mph - N/A   Clear
8:55 PM 74.5 °F - 57.4 °F 55% 30.13 in 10.0 mi North 3.5 mph - N/A   Clear
9:15 PM 74.1 °F - 57.4 °F 56% 30.13 in 10.0 mi NNW 5.8 mph - N/A   Clear
9:35 PM 73.8 °F - 57.7 °F 57% 30.15 in 10.0 mi NNW 4.6 mph - N/A   Clear
9:55 PM 71.6 °F - 58.1 °F 62% 30.15 in 10.0 mi NW 4.6 mph - N/A   Clear
10:15 PM 72.7 °F - 57.7 °F 59% 30.16 in 10.0 mi NNW 5.8 mph - N/A   Clear
10:35 PM 71.2 °F - 57.7 °F 62% 30.17 in 10.0 mi NW 5.8 mph - N/A   Clear
10:55 PM 71.6 °F - 57.9 °F 62% 30.17 in 10.0 mi North 4.6 mph - N/A   Clear
11:15 PM 70.3 °F - 58.3 °F 66% 30.18 in 10.0 mi NNW 6.9 mph - N/A   Clear
11:55 PM 68.2 °F - 57.4 °F 68% 30.19 in 10.0 mi North 3.5 mph - N/A   Clear